User: anonymous   Login
Location: Unspecified
(0.0000°N, 0.0000°E)
Time: 09:13:45
(UTC+00:00)
Language:

Tansei-1 - Orbit

View from above orbital plane
View from above orbital plane
View from above satellite
View from above satellite

Ground track
Ground track

The orbit data is extracted from the following two-line orbital elements,

1  4952U 71011A   18109.95473990 +.00000059 +00000-0 -10005-4 0  9990
2  4952 029.6663 096.5658 0079866 143.1952 238.6311 13.58474903342988
Epoch (UTC): 19 April 2018 22:54:49
Eccentricity: 0.0079866
inclination: 29.6663°
perigee height: 982 km
apogee height: 1100 km
right ascension of ascending node: 96.5658°
argument of perigee: 143.1952°
revolutions per day: 13.58474903
mean anomaly at epoch: 238.6311°
orbit number at epoch: 34298

The dashed part of the orbit path shows where the satellite is in the earth's shadow,  

DLR